Location: ??? ???
(32.1930°N, 35.3713°E)
Time: 05:05:56
(UTC+00:00)

Daily predictions for brighter satellites

Satellite Brightness Start Highest point End
(mag) Time Altitude Azimuth Time Altitude Azimuth Time Altitude Azimuth
ADEOS Rocket 4.5 00:58:54 10° SE 01:03:33 28° ENE 01:08:11 10° NNE
COSMOS 2406 3.8 01:17:22 52° E 01:17:22 52° E 01:22:17 10° NNE
H-2A R/B 4.2 01:13:16 10° SE 01:15:25 24° ESE 01:15:25 24° ESE
Lacrosse 5 rocket 4.2 01:24:34 11° NE 01:24:34 11° NE 01:24:43 10° NE
Cosmos 292 Rocket 4.3 01:44:26 35° N 01:46:14 58° ENE 01:50:59 10° SSE
CENTAUR R/B 3.5 01:48:26 31° NNW 01:48:26 31° NNW 01:52:49 10° NNE
CZ-4B R/B 4.1 01:48:42 10° ESE 01:51:19 20° ENE 01:53:56 10° NNE
CBERS 1 LM4 rocket 4.2 01:47:28 10° NNE 01:52:21 89° E 01:52:51 72° S
DELTA 2 R/B (1) 3.9 02:00:56 44° NW 02:02:26 59° NNE 02:07:58 10° E
Cosmos 1461 2.9 02:07:49 57° SW 02:08:42 84° WNW 02:13:20 10° NNE
ERS-2 2.8 02:05:42 10° SSE 02:09:13 54° ENE 02:12:47 10° N
Cosmos 1331 Rocket 3.9 02:08:42 49° WNW 02:09:41 58° WSW 02:14:47 10° S
Nadezhda 4 Rocket 3.8 02:08:00 10° S 02:14:05 82° W 02:20:14 10° N
Cosmos 1908 3.1 02:11:57 20° N 02:14:38 90° W 02:18:31 10° S
SL-14 R/B 3.5 02:13:52 10° S 02:17:46 68° E 02:21:44 10° NNE
Cosmos 2180 Rocket 4.4 02:12:48 10° NNW 02:18:58 65° W 02:25:03 10° S
ALOS 2.1 02:18:46 10° N 02:23:26 76° WNW 02:28:05 10° SSW
Meteor 2-13 Rocket 4.5 02:17:47 10° S 02:23:57 83° E 02:30:06 10° N
Cosmos 1833 Rocket 2.9 02:21:36 28° SW 02:24:14 47° WNW 02:29:41 10° N
Meteor 1-24 Rocket 3.8 02:23:22 10° S 02:28:50 78° E 02:34:33 10° N
CZ-2C R/B 3.9 02:25:48 10° NNW 02:27:56 20° NW 02:27:56 20° NW
ADEOS 3.5 02:26:04 10° N 02:31:11 59° WNW 02:36:18 10° SSW
ATLAS 3B R/B 2.6 02:26:34 12° SW 02:32:31 60° WNW 02:39:03 10° NNE
ISS -1.6 02:34:11 15° NNW 02:34:11 15° NNW 02:35:37 10° N
Cosmos 1300 4.0 02:31:41 10° N 02:35:20 43° E 02:38:57 10° SSE
Cosmos 1689 Rocket 4.4 02:33:05 10° SE 02:35:35 26° ENE 02:38:05 10° NNE
USA 290 2.0 02:33:36 12° SSW 02:36:27 74° WNW 02:39:40 10° NNE
Geosat 3.9 02:33:08 10° SSE 02:38:09 81° WSW 02:43:11 10° NNW
CZ-2C R/B 2.0 02:38:39 24° SW 02:39:03 25° SSW 02:41:48 10° SSE
Cosmos 1302 Rocket 4.0 02:34:14 10° NNW 02:39:27 63° WSW 02:44:38 10° S
Cosmos 2369 4.3 02:36:26 10° NNW 02:42:00 57° ENE 02:47:32 10° SE
Cosmos 2082 Rocket 2.1 02:37:03 10° SSW 02:42:35 62° WNW 02:48:09 10° NNE
Cosmos 1484 Rocket 3.3 02:41:33 10° N 02:45:02 34° WNW 02:48:27 10° SW
Cosmos 1626 2.7 02:43:19 10° SSW 02:46:40 33° W 02:50:03 10° NNW
Cosmos 2228 3.0 02:42:47 10° N 02:47:09 88° W 02:51:33 10° S
COSMO-SKYMED 1 3.3 02:44:09 10° SSE 02:48:23 56° ENE 02:52:38 10° N
Cosmos 1606 Rocket 3.6 02:44:22 10° N 02:48:51 90° WSW 02:53:18 10° S
ADEOS Rocket 3.6 02:44:20 10° SSW 02:49:00 28° W 02:53:38 10° NW
METEOR-M 4.2 02:45:38 10° N 02:50:47 52° WNW 02:55:56 10° SSW
CZ-4B R/B 2.9 02:47:14 10° N 02:51:20 85° WNW 02:55:37 10° SSW
Meteor 2-5 Rocket 3.9 02:46:32 10° SSW 02:51:55 47° WNW 02:57:26 10° N
H-2A R/B 3.7 02:50:24 10° SW 02:52:30 16° WSW 02:52:30 16° WSW
H-2A R/B 4.3 02:51:47 10° NNE 02:55:23 39° E 02:59:01 10° S
Cosmos 1656 4.1 02:52:06 10° NW 02:57:26 42° WSW 03:02:43 10° S
CZ-3A R/B 4.3 02:57:54 10° SSE 02:58:58 11° SE 03:00:20 10° ESE
Cosmos 1428 Rocket 4.5 02:54:15 10° S 03:00:30 80° W 03:06:44 10° N
Lacrosse 5 rocket 3.2 03:00:14 11° NW 03:00:35 11° NW 03:01:39 10° NNW
ATLAS CENTAUR R/B 3.7 02:57:40 10° S 03:01:04 26° ESE 03:04:20 10° NE
Okean 1-7 Rocket 3.6 03:01:31 10° S 03:06:04 77° W 03:10:36 10° N
Meteor 1-31 Rocket 3.8 03:05:45 10° NNW 03:08:58 24° WNW 03:12:10 10° SW
Cosmos 2026 Rocket 4.1 03:05:19 10° SSW 03:11:34 61° W 03:17:54 10° N
Cosmos 1697 Rocket 2.8 03:09:24 10° NNW 03:14:58 59° WSW 03:20:30 10° S
Meteor PRIRODA 3.9 03:11:39 10° N 03:15:08 43° WNW 03:18:37 10° SSW
Cosmos 2058 Rocket 3.1 03:14:06 10° N 03:18:36 88° W 03:23:03 10° S
Cosmos 220 Rocket 4.1 03:15:16 10° NNW 03:19:37 57° WSW 03:23:55 10° S
Cosmos 1992 Rocket 4.0 03:15:18 10° NNW 03:20:29 68° WSW 03:25:38 10° S
PSLV R/B 3.9 03:16:54 10° NNE 03:21:02 89° NW 03:25:07 10° SSW
Spot 2 4.3 03:16:34 10° N 03:21:11 83° WNW 03:26:04 10° SSW
Cosmos 1892 Rocket 4.3 03:19:26 10° SW 03:23:15 30° W 03:27:06 10° NNW
CZ-4B R/B 3.1 03:21:18 10° SW 03:23:27 16° W 03:25:36 10° WNW
Cosmos 1455 4.4 03:21:20 10° NNE 03:24:47 31° E 03:28:14 10° SE
Cosmos 2084 4.4 03:25:15 10° WSW 03:28:57 28° NW 03:32:43 10° N
